Weather in Novyy Buyan

Russia / Samara Oblast     53°41′04″N   50°02′39″E
temp.,
°C
wind,
m/s
gust,
m/s
humid.,
%
clouds,
%
prec.,
mm/h
press.,
hPa
HPBL,
m
25 february, thu
thu2501:00−27nw349832 0.0 103544
04:00−27wnw239766 0.0 103622
07:00−28wsw229651 0.0 103519
10:00−23s249073 0.0 1033131
13:00−18sse4687100 0.0 1031329
16:00−17s61094100 0.1 1028427
19:00−18s71296100 0.7 1025498
22:00−17s71295100 1.7 1022572
26 february, fri
fri2601:00−15s71295100 0.9 1019534
04:00−14sse61194100 1.7 1018515
07:00−13sse51095100 0.5 1016406
10:00−11sse5993100 0.8 1016405
13:00−9sse579399 0.3 1014446
16:00−8sse6994100 0.6 1012373
19:00−8sse61194100 0.3 1009346
22:00−6sse81395100 2.3 1005344
27 february, sat
sat2701:00−2s71397100 4.1 999399
04:00+2w714100100 7.3 997513
07:00+1wsw7139090 0.1 997651
10:000wsw7129891 0.3 997697
13:000wsw61110092 0.1 997684
16:000wsw6119894 0.3 998608
19:00−1wsw5119694 0.3 997366
22:00−1wsw5109794 1.3 998421
28 february, sun
sun2801:00−3nw589697 0.7 998301
04:00−9nw599499 1.0 1000349
07:00−12nw61093100 0.2 1002402
10:00−14nw6993100 0.3 1004415
13:00−14nw6992100 0.1 1007468
16:00−14nw6992100 0.1 1009504
19:00−16nw51094100 0.1 1011421
22:00−16nnw51095100 0.1 1014379
1 march, mon
mon101:00−17nw499698 0.1 1015256
04:00−19nw499796 0.1 1017208
07:00−18nnw599695 0.1 1018269
10:00−17nnw589596 0.1 1020291
13:00−16nnw579499 0.0 1021338
16:00−15nnw479399 0.1 1022400
19:00−18nw489890 0.0 1023142
22:00−20nw349857 0.0 102443